Regional Weather Roundup
Issued by NWS Charleston, SC

Current Version | Previous Version | Graphics & Text | Print | Product List | Glossary On
Versions: 1 2 3 4 5 6 7 8 9 10 11 12 13 14 15 16 17 18 19 20 21 22 23 24 25 26 27 28 29 30 31 32 33 34 35 36 37 38 39 40 41 42 43 44 45 46 47 48 49 50
524
ASUS42 KCHS 071712
RWRCHS

REGIONAL WEATHER ROUNDUP
NATIONAL WEATHER SERVICE CHARLESTON SC
1200 PM EST SUN FEB 07 2016

NOTE: "FAIR" INDICATES FEW OR NO CLOUDS BELOW 12,000 FEET WITH NO
SIGNIFICANT WEATHER AND/OR OBSTRUCTIONS TO VISIBILITY.

NOT ALL STATIONS ARE QUALITY CONTROLLED BY THE NATIONAL
WEATHER SERVICE. USE DATA WITH CAUTION...ESPECIALLY
DEWPOINT OBSERVATIONS.

NOTICE: OBSERVATIONS FOR THE SAVANNAH-HILTON HEAD INTERNATIONAL AIRPORT
/KSAV/ HAVE BEEN TEMPORARILY REMOVED DUE TO AN ERRONEOUS TEMPERATURE
SENSOR. THE OBSERVATION WILL BE REINTRODUCED ONCE REPAIRS ARE COMPLETE.

SCZ027-030-031-034>040-042>050-071800-
...SOUTHEAST SOUTH CAROLINA...

CITY           SKY/WX    TMP DP  RH WIND       PRES   REMARKS
N CHARLESTON   CLOUDY    41  33  73 N18G33    29.93F
WATERFRONT PRK   N/A     40  38  93 N14       29.77F WCI  32
MOUNT PLEASANT CLOUDY    39  37  93 NW17G24   29.92F WCI  30
JOHNS ISLAND   CLOUDY    41  36  81 NW20G29   29.92F
PINOPOLIS        N/A     43  34  70 N23       29.89F
MONCKS CORNER  CLOUDY    37  28  70 N16G28    29.95F WCI  28
SUMMERVILLE    CLOUDY    43  32  65 N14G20    29.98F
BEAUFORT MCAS  CLOUDY    45  32  60 N14       29.99F
BEAUFORT ARPT  PTSUNNY   45  34  65 N20       29.98F
HILTON HEAD IS PTSUNNY   45  34  65 N12G25    29.99F
WALTERBORO     CLOUDY    46  32  57 N17       29.99F
ALLENDALE      CLOUDY    46  25  42 NW9G22    30.02S

...SOUTHERN MIDLANDS AND PEE DEE...

CITY           SKY/WX    TMP DP  RH WIND       PRES   REMARKS
GEORGETOWN     NOT AVBL
KINGSTREE      NOT AVBL
ORANGEBURG     CLOUDY    46  26  45 N10       30.02F
BARNWELL       CLOUDY    48  28  46 N14       30.04F
AIKEN          FAIR      46  25  42 N14G21    30.08F
MANNING        CLOUDY    41  27  56 N15G26    29.99F
COLUMBIA       CLOUDY    47  23  38 N8        30.04F
SUMTER         CLOUDY    45  23  41 N13       30.00R
FLORENCE       LGT RAIN  41  28  60 N20G26    29.98F
MYRTLE BEACH   RAIN      37  30  75 N16G25    29.89F FOG     WCI  28
N MYRTLE BEACH RAIN      37  35  92 N13G26    29.83F WCI  29

$$

GAZ063-065-086>088-099>101-113>116-118-119-134>141-150-071800-
...SOUTHEAST GEORGIA...

CITY           SKY/WX    TMP DP  RH WIND       PRES   REMARKS
SAVANNAH ARPT  CLOUDY    47  31  53 NW15G23   30.01F
HUNTER AAF     CLOUDY    46  32  58 NW17      29.98F
FORT STEWART   CLOUDY    48  31  50 NW23      30.01F
STATESBORO     PTSUNNY   52  22  30 N20G25    30.04F
SYLVANIA       CLOUDY    49  31  50 N13G21    30.05F
CLAXTON        PTSUNNY   50  32  49 NW14      30.06F

...CSRA...CENTRAL AND FAR SOUTHEAST GEORGIA...

CITY           SKY/WX    TMP DP  RH WIND       PRES   REMARKS
THOMSON        SUNNY     54  29  38 N8G20     30.13F
AUGUSTA-BUSH   MOSUNNY   51  24  34 N17G24    30.06F
AUGUSTA-DANIEL SUNNY     52  23  32 N14G23    30.07F
SWAINSBORO     FAIR      52  25  35 N7G21     30.08F
VIDALIA        SUNNY     52  27  37 N15G26    30.08F
EASTMAN        FAIR      53  23  30 NW7G16    30.14F
HAZLEHURST     FAIR      53  23  30 N15G26    30.08F
ALMA           SUNNY     52  24  33 N18G29    30.08F
WAYCROSS       SUNNY     55  32  42 N18G26    30.07F
JESUP          PTSUNNY   52  34  50 N13G22    30.05F
BAXLEY         FAIR      52  23  32 N13G23    30.07F
BRUNSWICK      CLOUDY    46  34  61 NW12G24   30.03F
SAINT SIMONS   CLOUDY    48  35  60 NW15G23   30.01F

$$

SCZ027-028-034-036>038-045-046-048>050-GAZ119-141-071800-
...LAKE AND SUPPLEMENTAL COASTAL OBSERVATIONS...

STATION/POSITION TIME  TEMP    WIND        PRES    WAVE   SWELL
                       AIR SEA DIR/SP/G            HT/PER HT/PER/DIR
                 (UTC) (F)     (DEG/KT/KT) (MB)    (FT/S) (FT/S/D)
WINYAH BAY       NOT AVBL
LAKE MURRAY      1600   44     340/  3/ 10 1017.9S
ACE BASIN NERRS  NOT AVBL
FORT PULASKI     1600   42 53  320/ 19/ 23 1015.9F
SAPELO ISLAND    1600   44     340/ 15     1016.0S

$$

ANZ835-935-AMZ111-154-330-350-352-354-370-450-454-472-071800-
...C-MAN AND BUOY OBSERVATIONS...

STATION/POSITION TIME  TEMP    WIND        PRES    WAVE   SWELL
                       AIR SEA DIR/SP/G            HT/PER HT/PER/DIR
                 (UTC) (F)     (DEG/KT/KT) (MB)    (FT/S) (FT/S/D)
BUOY 41004       1650   47 66  340/ 27/ 35 1009.3F  10/ 8   5/ 9
BUOY 41008       1650   45 56  340/ 23/ 27 1015.1F   6/ 8   3/ 50/ 8
FOLLY BEACH CMAN 1700   39     340/ 21/ 28 1012.6F
CAPERS NEARSHORE 1608   42     340/ 19/ 25 1012.7S
FRIPP NEARSHORE  1600   44     350/ 23/ 27 1014.2F


STATION/POSITION TIME  TEMP    WIND        PRES    WAVE   SWELL
                       AIR SEA DIR/SP/G            HT/PER HT/PER/DIR
                 (UTC) (F)     (DEG/KT/KT) (MB)    (FT/S) (FT/S/D)
5E ST. MARYS GA  1621      56                N/A     6/ 8   2/100/12
FRYING PAN BUOY  1600   48 67  350/ 35/ 43 1006.1F
BUOY 41025       1650   56 70   20/ 33/ 41 1006.9F  12/ 7
CAPE LOOKOUT NC  NOT AVBL
BUOY 41002       1650   68 69  220/ 27/ 37   N/A     9/11   3/ 90/11
BUOY 41010       1620   66 74              1008.1R
ST AUGUSTINE FL  1700   47 57  300/ 14/ 18 1017.1F


$$




USA.gov is the U.S. government's official web portal to all federal, state and local government web resources and services.